Current Weather Conditions: station 62161

sailwx.info

Wind from 120

Wave height 2.1 meters (6 feet)

Air temperature 6.2° C
Visibility: greater than 10.8 NM
Dewpoint 1.4° C

Last reported at 2020-Apr-04 06:00 UTC.
Time now 2020-Apr-04 07:05 UTC

Location: N 58°24' E 001°12'.
View on Google Maps.

See reports from other nearby stations

  
Tides and Currents Weather Stations Pressure Air Temp Water Temp Dewpoint Dewpoint Depression Visibility Wind Speed Wind Dir Waves Ship Positions
date/time (UTC)wind fromknots sea level pressurealtimeterstation pressurevisibilityair tempwater tempwave heightnotes
2020-Apr-04 06:00 120 10.8 6.2 2.1
2020-Apr-04 05:00 140 10.8 6.4 2.2
2020-Apr-04 04:00 160 27.0 5.9 2.5
2020-Apr-04 03:00 200 27.0 5.5 2.4
2020-Apr-04 02:00 190 27.0 5.3 2.3
2020-Apr-04 01:00 190 27.0 5.1 2.5
2020-Apr-04 00:00 240 10.8 5.2 2.6
2020-Apr-03 23:00 230 10.8 5.0 2.3
2020-Apr-03 22:00 240 10.8 5.0 2.3
2020-Apr-03 21:00 250 10.8 5.0 2.6
2020-Apr-03 20:00 250 10.8 4.8 2.9
2020-Apr-03 19:00 280 10.8 4.7 2.6
2020-Apr-03 18:00 230 10.8 5.5 2.4
2020-Apr-03 17:00 280 10.8 5.1 2.8
2020-Apr-03 16:00 300 10.8 4.5 3.0
2020-Apr-03 15:00 310 10.8 4.1 3.2
2020-Apr-03 14:00 330 10.8 3.4 3.0
2020-Apr-03 13:00 290 10.8 4.0 3.0
2020-Apr-03 12:00 320 10.8 3.3 3.6
2020-Apr-03 11:00 340 10.8 4.2 3.4
2020-Apr-03 10:00 300 10.8 4.2 3.8
2020-Apr-03 09:00 330 10.8 4.1 4.0
2020-Apr-03 08:00 310 10.8 4.1 4.0
2020-Apr-03 07:00 310 10.8 4.1 4.6
2020-Apr-03 06:00 310 10.8 3.8 4.6
2020-Apr-03 05:00 310 10.8 3.0 4.2
2020-Apr-03 04:00 320 10.8 3.5 4.5
2020-Apr-03 03:00 330 5.4 3.3 4.3
2020-Apr-03 02:00 320 5.4 3.6 4.4
2020-Apr-03 01:00 310 10.8 3.8 4.4
2020-Apr-03 00:00 310 5.4 4.2 4.7
2020-Apr-02 23:00 310 10.8 4.3 4.8
2020-Apr-02 22:00 310 10.8 4.3 5.0
2020-Apr-02 19:00 320 5.4 4.7 5.6
2020-Apr-02 18:00 330 5.4 3.7 5.5
2020-Apr-02 17:00 320 5.4 4.7 6.4
2020-Apr-02 16:00 310 2.2 2.7 6.0
2020-Apr-02 15:00 300 2.2 3.8 6.8
2020-Apr-02 14:00 300 2.2 5.2 6.6
2020-Apr-02 13:00 290 2.2 4.8 7.1
2020-Apr-02 12:00 290 2.2 3.9 6.4